Stewartville, MN

5:35 PM CST on December 02, 2016 (GMT -0600)
Rochester International

Weather History for KRST - January, 2014

Change the Weather History Date:

Saturday, January 4, 2014

  Actual Average Record
Temperature  
Mean Temperature 18 °F 16 °F  
Max Temperature 33 °F 24 °F 43 °F (2007)
Min Temperature 2 °F 8 °F -32 °F (1920)
Degree Days  
Heating Degree Days 47 49  
Month to date heating degree days 249 196  
Since 1 July heating degree days 3543 3274  
Cooling Degree Days 0 0  
Month to date cooling degree days 0 0  
Year to date cooling degree days 0 0  
Moisture  
Dew Point 10 °F    
Average Humidity 72    
Maximum Humidity 84    
Minimum Humidity 59    
Precipitation  
Precipitation 0.02 in 0.03 in 0.70 in (1997)
Month to date precipitation 0.02 0.11  
Year to date precipitation 0.02 0.11  
Snow  
Snow T in 0.30 in 4.10 in (1971)
Month to date snowfall T 1.3  
Since 1 July snowfall 14.4 20.7  
Snow Depth 6.00 in    
Sea Level Pressure  
Sea Level Pressure 29.86 in    
Wind  
Wind Speed 18 mph (WNW)    
Max Wind Speed 30 mph    
Max Gust Speed 36 mph    
Visibility 9 miles    
Events Snow    
T = Trace of Precipitation, MM = Missing Value Source: NWS Daily Summary

Daily Weather History Graph

Daily Weather History Graph

Search for Another Location

Airport or City:

Trip Planner

Search our weather history database for the weather conditions in past years. The results will help you decide how hot, cold, wet, or windy it might be!

Date:

Astronomy

Jan. 04, 2014 Rise Set
Actual Time 7:44 AM CST 4:45 PM CST
Civil Twilight 7:11 AM CST 5:18 PM CST
Nautical Twilight 6:35 AM CST 5:54 PM CST
Astronomical Twilight 6:00 AM CST 6:29 PM CST
Moon 9:41 AM CST (1/4) 9:15 PM CST (1/4)
Length of Visible Light 10h 06m
Length of Day
9h 01m
Waxing Crescent, 15% of the Moon is Illuminated
Jan 4
Waxing Crescent
Jan 7
First Quarter
Jan 15
Full
Jan 23
Last Quarter
Jan 30
New

Hourly Weather History & Observations

Time (CST) Temp. Windchill Dew Point Humidity Pressure Visibility Wind Dir Wind Speed Gust Speed Precip Events Conditions
12:54 AM 24.1 °F 7.4 °F 18.0 °F 77% 29.56 in 10.0 mi SSW 27.6 mph 34.5 mph N/A   Partly Cloudy
1:16 AM 25.0 °F 8.9 °F 18.0 °F 75% 29.49 in 10.0 mi SSW 26.5 mph - N/A   Mostly Cloudy
1:54 AM 25.0 °F 10.2 °F 19.0 °F 78% 29.55 in 10.0 mi SSW 21.9 mph 31.1 mph 0.02 in   Overcast
2:54 AM 28.0 °F 14.3 °F 21.0 °F 75% 29.55 in 10.0 mi SSW 21.9 mph - 0.00 in   Overcast
3:54 AM 28.9 °F 16.1 °F 23.0 °F 78% 29.57 in 10.0 mi SW 19.6 mph - N/A   Overcast
4:16 AM 30.0 °F 18.7 °F 24.1 °F 79% 29.52 in 10.0 mi SW 16.1 mph - N/A   Overcast
4:54 AM 30.9 °F 19.8 °F 25.0 °F 79% 29.60 in 10.0 mi SW 16.1 mph - N/A   Overcast
5:40 AM 30.9 °F 22.2 °F 26.1 °F 82% 29.55 in 10.0 mi WSW 10.4 mph - N/A   Overcast
5:54 AM 32.0 °F 22.1 °F 27.0 °F 82% 29.62 in 10.0 mi WSW 13.8 mph - N/A   Overcast
6:54 AM 21.0 °F 5.0 °F 16.0 °F 81% 29.71 in 3.0 mi WNW 21.9 mph 32.2 mph N/A Snow Blowing Snow
7:04 AM 19.9 °F 3.5 °F 16.0 °F 85% 29.65 in 2.0 mi WNW 21.9 mph - 0.00 in   Overcast
7:35 AM 19.0 °F 3.2 °F 14.0 °F 81% 29.68 in 2.5 mi West 19.6 mph 27.6 mph 0.00 in Snow Blowing Snow
7:54 AM 18.0 °F 2.2 °F 14.0 °F 84% 29.76 in 2.5 mi WNW 18.4 mph - 0.00 in   Overcast
8:28 AM 18.0 °F 3.1 °F 12.9 °F 81% 29.74 in 4.0 mi WNW 16.1 mph 23.0 mph N/A   Haze
8:54 AM 18.0 °F 2.2 °F 12.9 °F 81% 29.83 in 7.0 mi WNW 18.4 mph - N/A   Overcast
9:54 AM 18.0 °F 2.2 °F 12.0 °F 78% 29.85 in 7.0 mi NW 18.4 mph - N/A   Overcast
10:54 AM 18.0 °F 1.3 °F 12.0 °F 78% 29.92 in 8.0 mi NW 20.7 mph - N/A   Scattered Clouds
11:54 AM 18.0 °F 1.3 °F 9.0 °F 68% 29.91 in 10.0 mi NNW 20.7 mph 27.6 mph N/A   Clear
12:54 PM 18.0 °F 1.7 °F 9.0 °F 68% 29.92 in 8.0 mi NNW 19.6 mph - N/A   Mostly Cloudy
1:54 PM 17.1 °F 3.6 °F 7.0 °F 65% 29.97 in 10.0 mi North 12.7 mph - 0.00 in   Scattered Clouds
2:54 PM 15.1 °F -0.6 °F 3.9 °F 61% 30.01 in 10.0 mi NNW 16.1 mph - N/A   Partly Cloudy
3:54 PM 14.0 °F -2.5 °F 3.9 °F 64% 30.04 in 10.0 mi NNW 17.3 mph - N/A   Clear
4:54 PM 12.0 °F -3.4 °F 3.0 °F 67% 30.08 in 10.0 mi NNW 13.8 mph - N/A   Clear
5:54 PM 10.0 °F -7.1 °F 1.0 °F 67% 30.09 in 10.0 mi NW 16.1 mph - N/A   Clear
6:54 PM 9.0 °F -8.5 °F -0.0 °F 67% 30.15 in 10.0 mi NW 16.1 mph - N/A   Clear
7:54 PM 7.0 °F -12.1 °F -0.9 °F 70% 30.17 in 10.0 mi NNW 18.4 mph - N/A   Clear
8:54 PM 5.0 °F -12.3 °F -2.9 °F 70% 30.19 in 10.0 mi NW 13.8 mph - N/A   Clear
9:54 PM 3.0 °F -17.3 °F -6.0 °F 66% 30.21 in 10.0 mi NNW 18.4 mph - N/A   Clear
10:54 PM 1.9 °F -18.1 °F -6.0 °F 69% 30.23 in 10.0 mi NNW 17.3 mph - N/A   Clear
11:54 PM 1.9 °F -17.5 °F -7.1 °F 66% 30.25 in 10.0 mi NNW 16.1 mph - N/A   Clear